When you browse on this site, cookies collect data to enhance your experience and personalize the content and advertising you see.
Visit our Privacy Policy to learn more. By continuing to use the site, you agree to this use of cookies and data.
  • In Hungary
  • List of Countries
  • For 7 days
  • Water Temperature
  • Satellite Maps
  • Weather Map
  • News
  • Weather Widgets
  • user-avatar
    Login

    Hourly Weather Kinshasa

    Today, 21 January, Monday

    Time Temperature Precipitation Wind Pressure Humidity
    00:00 +27°C° 0 mm 1 mps 708 mmHg 54%
    01:00 +27°C° 0 mm 1 mps 708 mmHg 57%
    02:00 +26°C° 0 mm 1 mps 708 mmHg 59%
    03:00 +26°C° 0 mm 1 mps 708 mmHg 61%
    04:00 +26°C° 0 mm 1 mps 708 mmHg 64%
    05:00 +26°C° 0 mm 1 mps 709 mmHg 64%
    06:00 +26°C° 0 mm 2 mps 709 mmHg 65%
    07:00 +26°C° 0 mm 2 mps 709 mmHg 63%
    08:00 +29°C° 0 mm 2 mps 709 mmHg 56%
    09:00 +31°C° 0 mm 2 mps 709 mmHg 48%
    10:00 +34°C° 0 mm 2 mps 710 mmHg 41%
    11:00 +37°C° 0 mm 2 mps 709 mmHg 33%
    12:00 +40°C° 0 mm 1 mps 709 mmHg 25%
    13:00 +42°C° 0 mm 1 mps 708 mmHg 18%
    14:00 +41°C° 0 mm 1 mps 708 mmHg 18%
    15:00 +40°C° 0 mm 1 mps 707 mmHg 18%
    16:00 +40°C° 0 mm 1 mps 706 mmHg 18%
    17:00 +37°C° 0 mm 2 mps 706 mmHg 23%
    18:00 +35°C° 0 mm 2 mps 706 mmHg 28%
    19:00 +32°C° 0 mm 2 mps 706 mmHg 33%
    20:00 +31°C° 0 mm 2 mps 707 mmHg 37%
    21:00 +30°C° 0 mm 1 mps 707 mmHg 42%
    22:00 +28°C° 0 mm 1 mps 707 mmHg 46%
    23:00 +28°C° 0 mm 1 mps 707 mmHg 49%

    Tomorrow, 22 January, Tuesday

    Time Temperature Precipitation Wind Pressure Humidity
    00:00 +27°C° 0 mm 1 mps 707 mmHg 51%
    01:00 +27°C° 0 mm 1 mps 707 mmHg 54%
    02:00 +26°C° 0 mm 1 mps 707 mmHg 56%
    03:00 +26°C° 0 mm 1 mps 707 mmHg 57%
    04:00 +25°C° 0 mm 1 mps 707 mmHg 59%
    05:00 +25°C° 0 mm 2 mps 707 mmHg 59%
    06:00 +26°C° 0 mm 2 mps 707 mmHg 60%
    07:00 +26°C° 0 mm 3 mps 708 mmHg 60%
    08:00 +29°C° 0 mm 2 mps 708 mmHg 53%
    09:00 +31°C° 0 mm 2 mps 709 mmHg 46%
    10:00 +35°C° 0 mm 2 mps 709 mmHg 40%
    11:00 +38°C° 0 mm 2 mps 709 mmHg 33%
    12:00 +41°C° 0 mm 1 mps 708 mmHg 26%
    13:00 +44°C° 0 mm 1 mps 708 mmHg 19%
    14:00 +42°C° 0 mm 1 mps 707 mmHg 19%
    15:00 +41°C° 0 mm 1 mps 706 mmHg 19%
    16:00 +37°C° 0 mm 0 mps 705 mmHg 19%
    17:00 +37°C° 0 mm 1 mps 705 mmHg 23%
    18:00 +35°C° 0 mm 1 mps 705 mmHg 26%
    19:00 +34°C° 0 mm 2 mps 705 mmHg 29%
    20:00 +32°C° 0 mm 2 mps 706 mmHg 33%
    21:00 +30°C° 0 mm 1 mps 706 mmHg 37%
    22:00 +29°C° 0 mm 1 mps 706 mmHg 41%
    23:00 +29°C° 0 mm 1 mps 706 mmHg 44%

    Day after tomorrow, 23 January, Wednesday

    Time Temperature Precipitation Wind Pressure Humidity
    00:00 +26°C° 0 mm 0 mps 706 mmHg 46%
    01:00 +26°C° 0 mm 0 mps 706 mmHg 48%
    02:00 +27°C° 0 mm 1 mps 706 mmHg 50%
    03:00 +27°C° 0 mm 1 mps 706 mmHg 52%
    04:00 +26°C° 0 mm 2 mps 706 mmHg 53%
    05:00 +26°C° 0 mm 2 mps 707 mmHg 56%
    06:00 +26°C° 0 mm 3 mps 707 mmHg 60%
    07:00 +26°C° 0 mm 3 mps 708 mmHg 63%
    08:00 +28°C° 0 mm 3 mps 708 mmHg 57%
    09:00 +30°C° 0 mm 3 mps 709 mmHg 51%
    10:00 +34°C° 0 mm 3 mps 709 mmHg 45%
    11:00 +36°C° 0 mm 3 mps 708 mmHg 38%
    12:00 +38°C° 0 mm 2 mps 708 mmHg 30%
    13:00 +40°C° 0 mm 2 mps 707 mmHg 22%
    14:00 +41°C° 0 mm 1 mps 706 mmHg 21%
    15:00 +41°C° 0 mm 1 mps 706 mmHg 19%
    16:00 +39°C° 0 mm 0 mps 705 mmHg 17%
    17:00 +39°C° 0 mm 1 mps 705 mmHg 21%
    18:00 +35°C° 0 mm 1 mps 705 mmHg 25%
    19:00 +32°C° 0 mm 2 mps 706 mmHg 30%
    20:00 +31°C° 0 mm 2 mps 706 mmHg 36%
    21:00 +31°C° 0 mm 2 mps 706 mmHg 42%
    22:00 +30°C° 0 mm 2 mps 707 mmHg 48%
    23:00 +29°C° 0 mm 2 mps 706 mmHg 51%

    24 January, Thursday

    Time Temperature Precipitation Wind Pressure Humidity
    00:00 +29°C° 0 mm 2 mps 706 mmHg 54%
    01:00 +28°C° 0 mm 2 mps 706 mmHg 57%
    02:00 +27°C° 0 mm 2 mps 706 mmHg 61%
    03:00 +27°C° 0 mm 1 mps 706 mmHg 64%
    04:00 +26°C° 0 mm 1 mps 706 mmHg 67%
    05:00 +26°C° 0 mm 2 mps 707 mmHg 68%
    06:00 +26°C° 0 mm 2 mps 707 mmHg 68%
    07:00 +26°C° 0 mm 2 mps 708 mmHg 68%
    08:00 +28°C° 0 mm 2 mps 708 mmHg 61%
    09:00 +31°C° 0 mm 3 mps 708 mmHg 55%
    10:00 +34°C° 0 mm 3 mps 709 mmHg 48%
    11:00 +36°C° 0 mm 3 mps 708 mmHg 41%
    12:00 +38°C° 0 mm 2 mps 707 mmHg 34%
    13:00 +40°C° 0 mm 2 mps 706 mmHg 26%
    14:00 +41°C° 0 mm 1 mps 706 mmHg 24%
    15:00 +38°C° 0 mm 0 mps 705 mmHg 22%
    16:00 +38°C° 0 mm 0 mps 704 mmHg 20%
    17:00 +36°C° 0 mm 0 mps 705 mmHg 23%
    18:00 +36°C° 0 mm 1 mps 705 mmHg 27%
    19:00 +34°C° 0 mm 1 mps 705 mmHg 30%
    20:00 +33°C° 0 mm 1 mps 705 mmHg 34%
    21:00 +31°C° 0 mm 1 mps 706 mmHg 38%
    22:00 +30°C° 0 mm 2 mps 706 mmHg 43%
    23:00 +30°C° 0 mm 2 mps 706 mmHg 46%

    25 January, Friday

    Time Temperature Precipitation Wind Pressure Humidity
    00:00 +29°C° 0 mm 1 mps 706 mmHg 49%
    01:00 +29°C° 0 mm 1 mps 706 mmHg 52%
    02:00 +28°C° 0.2 mm 2 mps 706 mmHg 56%
    03:00 +27°C° 0.2 mm 2 mps 706 mmHg 59%
    04:00 +27°C° 0.2 mm 2 mps 706 mmHg 62%
    05:00 +27°C° 0.1 mm 2 mps 706 mmHg 64%
    06:00 +26°C° 0.1 mm 2 mps 707 mmHg 67%
    07:00 +26°C° 0.1 mm 2 mps 707 mmHg 69%
    08:00 +27°C° 0.1 mm 2 mps 708 mmHg 64%
    09:00 +29°C° 0.1 mm 2 mps 708 mmHg 59%
    10:00 +30°C° 0.1 mm 2 mps 708 mmHg 54%
    11:00 +34°C° 0 mm 2 mps 708 mmHg 44%
    12:00 +37°C° 0 mm 1 mps 707 mmHg 34%
    13:00 +41°C° 0 mm 1 mps 707 mmHg 24%
    14:00 +41°C° 0 mm 1 mps 706 mmHg 22%
    15:00 +41°C° 0 mm 1 mps 706 mmHg 20%
    16:00 +41°C° 0 mm 1 mps 705 mmHg 19%
    17:00 +39°C° 0 mm 1 mps 705 mmHg 23%
    18:00 +35°C° 0 mm 1 mps 705 mmHg 28%
    19:00 +32°C° 0 mm 2 mps 705 mmHg 33%
    20:00 +31°C° 0 mm 1 mps 705 mmHg 38%
    21:00 +30°C° 0 mm 1 mps 706 mmHg 43%
    22:00 +29°C° 0 mm 1 mps 706 mmHg 49%
    23:00 +29°C° 0.1 mm 1 mps 706 mmHg 51%

    26 January, Saturday

    Time Temperature Precipitation Wind Pressure Humidity
    00:00 +28°C° 0.1 mm 1 mps 706 mmHg 52%
    01:00 +28°C° 0.1 mm 1 mps 706 mmHg 54%
    02:00 +27°C° 0.3 mm 1 mps 706 mmHg 58%
    03:00 +26°C° 0.3 mm 2 mps 706 mmHg 62%
    04:00 +26°C° 0.3 mm 2 mps 706 mmHg 66%
    05:00 +26°C° 0 mm 2 mps 707 mmHg 67%
    06:00 +26°C° 0 mm 2 mps 707 mmHg 68%
    07:00 +26°C° 0 mm 2 mps 707 mmHg 69%
    08:00 +28°C° 0 mm 2 mps 708 mmHg 61%
    09:00 +31°C° 0 mm 2 mps 708 mmHg 52%
    10:00 +35°C° 0 mm 2 mps 709 mmHg 44%
    11:00 +37°C° 0 mm 2 mps 708 mmHg 36%
    12:00 +40°C° 0 mm 1 mps 708 mmHg 29%
    13:00 +43°C° 0 mm 1 mps 707 mmHg 22%
    14:00 +41°C° 0 mm 1 mps 707 mmHg 24%
    15:00 +39°C° 0 mm 1 mps 706 mmHg 26%
    16:00 +36°C° 0 mm 1 mps 705 mmHg 28%
    17:00 +35°C° 0 mm 1 mps 705 mmHg 32%
    18:00 +34°C° 0 mm 2 mps 705 mmHg 36%
    19:00 +32°C° 0 mm 2 mps 705 mmHg 39%
    20:00 +31°C° 0 mm 2 mps 706 mmHg 44%
    21:00 +30°C° 0 mm 1 mps 706 mmHg 48%
    22:00 +29°C° 0 mm 1 mps 706 mmHg 52%
    23:00 +29°C° 0 mm 1 mps 706 mmHg 54%
    Show more